Location: Alsip
(41.6689°N, 87.7387°W)
Time: 13:19:23
(UTC+00:00)

Cosmos 468 Rocket - Pass Details

Date: 14 July 2020
Orbit: 743 x 780 km, 74.0° (Epoch: 04 August)

Event Time Altitude Azimuth Distance (km) Brightness Sun altitude
Rises 09:15:47 0° 335° (NNW) 3,267 7.5 -11.8°
Reaches altitude 10° 09:18:13 10° 331° (NNW) 2,338 6.7 -11.5°
Maximum altitude 09:23:22 52° 256° (WSW) 962 4.2 -10.8°
Drops below altitude 10° 09:28:29 10° 181° (S) 2,325 6.1 -10.1°
Sets 09:30:54 0° 176° (S) 3,247 6.9 -9.7°
